timestamp,surface_pressure_avg,surface_temp_avg,battery_voltage,lat,long
2020-07-20 00:09:01+00:00,361.1746,13.06,13.21,47.84626,-54.09684
2020-07-20 00:19:01+00:00,353.9546,13.06,12.89,47.84626,-54.09684
2020-07-20 00:29:01+00:00,346.0146,13.09,12.89,47.84626,-54.09684
2020-07-20 00:39:01+00:00,343.1395,13.09,12.89,47.84626,-54.09684
2020-07-20 00:49:01+00:00,339.5029,13.09,12.89,47.84626,-54.09684
2020-07-20 00:59:01+00:00,332.8797,13.09,12.89,47.84626,-54.09684
2020-07-20 01:09:01+00:00,324.2447,13.1,12.89,47.84626,-54.09684
2020-07-20 01:19:01+00:00,317.158,13.1,12.73,47.84626,-54.09684
2020-07-20 01:29:01+00:00,310.8646,13.11,12.73,47.84626,-54.09684
2020-07-20 01:39:01+00:00,302.4697,13.16,12.73,47.84626,-54.09684
2020-07-20 01:49:01+00:00,291.9214,13.18,12.73,47.84626,-54.09684
2020-07-20 01:59:01+00:00,284.2847,13.17,12.73,47.84626,-54.09684
2020-07-20 02:09:01+00:00,279.9847,13.1,12.73,47.84626,-54.09684
2020-07-20 02:19:01+00:00,273.6614,13.11,12.73,47.84626,-54.09684
2020-07-20 02:29:01+00:00,264.3164,13.15,12.73,47.84626,-54.09684
2020-07-20 02:39:01+00:00,257.8514,13.1,12.73,47.84626,-54.09684
2020-07-20 02:49:01+00:00,254.5398,13.1,12.73,47.84626,-54.09684
2020-07-20 02:59:01+00:00,247.4981,13.1,12.73,47.84626,-54.09684
2020-07-20 03:09:01+00:00,237.8881,13.1,12.73,47.84626,-54.09684
2020-07-20 03:19:01+00:00,231.7531,13.1,12.73,47.84626,-54.09684
2020-07-20 03:29:01+00:00,227.5881,13.13,12.73,47.84626,-54.09684
2020-07-20 03:39:01+00:00,220.3897,13.17,12.73,47.84626,-54.09684
2020-07-20 03:49:01+00:00,212.0814,13.2,12.73,47.84626,-54.09684
2020-07-20 03:59:01+00:00,209.1364,13.2,12.73,47.84626,-54.09684
2020-07-20 04:09:01+00:00,204.5697,13.26,12.73,47.84626,-54.09684
2020-07-20 04:19:01+00:00,199.2598,13.3,12.73,47.84626,-54.09684
2020-07-20 04:29:01+00:00,198.4531,13.35,12.73,47.84626,-54.09684
2020-07-20 04:39:01+00:00,199.1065,13.39,12.73,47.84626,-54.09684
2020-07-20 04:49:01+00:00,195.9365,13.4,12.73,47.84626,-54.09684
2020-07-20 04:59:01+00:00,193.3231,13.4,12.73,47.84626,-54.09684
2020-07-20 05:09:01+00:00,196.6181,13.4,12.73,47.84626,-54.09684
2020-07-20 05:19:01+00:00,198.8231,13.3,12.73,47.84626,-54.09684
2020-07-20 05:29:01+00:00,197.2481,13.35,12.73,47.84626,-54.09684
2020-07-20 05:39:01+00:00,198.8048,13.3,12.73,47.84626,-54.09684
2020-07-20 05:49:01+00:00,200.9348,13.32,12.73,47.84626,-54.09684
2020-07-20 05:59:01+00:00,200.8698,13.4,12.73,47.84626,-54.09684
2020-07-20 06:09:01+00:00,202.5265,13.37,12.73,47.84626,-54.09684
2020-07-20 06:19:01+00:00,204.9382,13.38,12.65,47.84626,-54.09684
2020-07-20 06:29:01+00:00,204.5748,13.4,12.65,47.84626,-54.09684
2020-07-20 06:39:01+00:00,204.7398,13.47,12.65,47.84626,-54.09684
2020-07-20 06:49:01+00:00,209.8331,13.49,12.65,47.84626,-54.09684
2020-07-20 06:59:01+00:00,213.9098,13.5,12.65,47.84626,-54.09684
2020-07-20 07:09:01+00:00,213.8131,13.5,12.65,47.84626,-54.09684
2020-07-20 07:19:01+00:00,214.7864,13.5,12.65,47.84626,-54.09684
2020-07-20 07:29:01+00:00,221.7981,13.48,12.65,47.84626,-54.09684
2020-07-20 07:39:01+00:00,227.4664,13.5,12.65,47.84626,-54.09684
2020-07-20 07:49:01+00:00,230.9564,13.4,12.65,47.84626,-54.09684
2020-07-20 07:59:01+00:00,236.8214,13.4,12.65,47.84626,-54.09684
2020-07-20 08:09:01+00:00,245.4064,13.4,12.65,47.84626,-54.09684
2020-07-20 08:19:01+00:00,247.683,13.4,12.65,47.84626,-54.09684
2020-07-20 08:29:01+00:00,251.8998,13.4,12.65,47.84626,-54.09684
2020-07-20 08:39:01+00:00,259.0631,13.4,12.65,47.84626,-54.09684
2020-07-20 08:49:01+00:00,266.858,13.4,12.65,47.84626,-54.09684
2020-07-20 08:59:01+00:00,270.5081,13.4,12.65,47.84626,-54.09684
2020-07-20 09:09:01+00:00,277.2947,13.4,12.65,47.84626,-54.09684
2020-07-20 09:19:01+00:00,288.4063,13.4,12.73,47.84626,-54.09684
2020-07-20 09:29:01+00:00,294.3514,13.4,12.73,47.84626,-54.09684
2020-07-20 09:39:01+00:00,297.6697,13.4,12.73,47.84626,-54.09684
2020-07-20 09:49:01+00:00,305.7681,13.4,12.73,47.84626,-54.09684
2020-07-20 09:59:01+00:00,311.323,13.4,12.73,47.84626,-54.09684
2020-07-20 10:09:01+00:00,314.1379,13.4,12.73,47.84626,-54.09684
2020-07-20 10:19:01+00:00,318.5763,13.4,12.89,47.84626,-54.09684
2020-07-20 10:29:01+00:00,325.0397,13.4,12.89,47.84626,-54.09684
2020-07-20 10:39:01+00:00,325.423,13.4,12.89,47.84626,-54.09684
2020-07-20 10:49:01+00:00,324.1313,13.45,12.89,47.84626,-54.09684
2020-07-20 10:59:01+00:00,327.7963,13.49,12.89,47.84626,-54.09684
2020-07-20 11:09:01+00:00,331.4947,13.46,12.89,47.84626,-54.09684
2020-07-20 11:19:01+00:00,328.4480000000001,13.42,13.21,47.84626,-54.09684
2020-07-20 11:29:01+00:00,325.6597,13.47,13.21,47.84626,-54.09684
2020-07-20 11:39:01+00:00,328.1629,13.49,13.21,47.84626,-54.09684
2020-07-20 11:49:01+00:00,325.1063,13.49,13.21,47.84626,-54.09684
2020-07-20 11:59:01+00:00,322.0814,13.5,13.21,47.84626,-54.09684
2020-07-20 12:09:01+00:00,323.0247,13.5,13.21,47.84626,-54.09684
2020-07-20 12:19:01+00:00,325.528,13.5,14.08,47.84626,-54.09684
2020-07-20 12:29:01+00:00,321.7813,13.48,14.08,47.84626,-54.09684
2020-07-20 12:39:01+00:00,317.6663,13.5,14.08,47.84626,-54.09684
2020-07-20 12:49:01+00:00,315.6113,13.5,14.08,47.84626,-54.09684
2020-07-20 12:59:01+00:00,310.7546,13.53,14.08,47.84626,-54.09684
2020-07-20 13:09:01+00:00,305.6714,13.5,14.08,47.84626,-54.09684
2020-07-20 13:19:01+00:00,303.5913,13.5,14.08,47.84626,-54.09684
2020-07-20 13:29:01+00:00,301.708,13.51,14.08,47.84626,-54.09684
2020-07-20 13:39:01+00:00,294.9564,13.54,14.08,47.84626,-54.09684
2020-07-20 13:49:01+00:00,285.6531,13.55,14.08,47.84626,-54.09684
2020-07-20 13:59:01+00:00,278.3031,13.56,14.08,47.84626,-54.09684
2020-07-20 14:09:01+00:00,270.9214,13.59,14.08,47.84626,-54.09684
2020-07-20 14:19:01+00:00,,13.6,14.24,47.84626,-54.09684
2020-07-20 14:29:01+00:00,,13.59,14.24,47.84626,-54.09684
2020-07-20 14:39:01+00:00,,13.6,14.24,47.84626,-54.09684
2020-07-20 14:49:01+00:00,,13.66,14.24,47.84626,-54.09684
2020-07-20 14:59:01+00:00,,13.7,14.24,47.84626,-54.09684
2020-07-20 15:09:01+00:00,,13.69,14.24,47.84626,-54.09684
2020-07-20 15:19:01+00:00,221.6831,13.69,14.24,47.84626,-54.09684
2020-07-20 15:29:01+00:00,217.1997,13.69,14.24,47.84626,-54.09684
2020-07-20 15:39:01+00:00,213.5848,13.6,14.24,47.84626,-54.09684
2020-07-20 15:49:01+00:00,209.0331,13.6,14.24,47.84626,-54.09684
2020-07-20 15:59:01+00:00,205.1514,13.6,14.24,47.84626,-54.09684
2020-07-20 16:09:01+00:00,201.7715,13.6,14.24,47.84626,-54.09684
2020-07-20 16:19:01+00:00,196.4514,13.65,14.08,47.84626,-54.09684
2020-07-20 16:29:01+00:00,193.4181,13.69,14.08,47.84626,-54.09684
2020-07-20 16:39:01+00:00,190.9814,13.67,14.08,47.84626,-54.09684
2020-07-20 16:49:01+00:00,186.3798,13.69,14.08,47.84626,-54.09684
2020-07-20 16:59:01+00:00,184.5198,13.68,14.08,47.84626,-54.09684
2020-07-20 17:09:01+00:00,185.2498,13.64,14.08,47.84626,-54.09684
2020-07-20 17:19:01+00:00,187.2265,13.66,14.08,47.84626,-54.09684
2020-07-20 17:29:01+00:00,187.5181,13.68,14.08,47.84626,-54.09684
2020-07-20 17:39:01+00:00,187.7381,13.67,14.08,47.84626,-54.09684
2020-07-20 17:49:01+00:00,190.4932,13.6,14.08,47.84626,-54.09684
2020-07-20 17:59:01+00:00,190.9998,13.6,14.08,47.84626,-54.09684
2020-07-20 18:09:01+00:00,192.4848,13.6,14.08,47.84626,-54.09684
2020-07-20 18:19:01+00:00,196.2014,13.6,14.0,47.84626,-54.09684
2020-07-20 18:29:01+00:00,201.4348,13.6,14.0,47.84626,-54.09684
2020-07-20 18:39:01+00:00,204.3314,13.6,14.0,47.84626,-54.09684
2020-07-20 18:49:01+00:00,208.4098,13.6,14.0,47.84626,-54.09684
2020-07-20 18:59:01+00:00,214.1714,13.6,14.0,47.84626,-54.09684
2020-07-20 19:09:01+00:00,218.8148,13.54,14.0,47.84626,-54.09684
2020-07-20 19:19:01+00:00,222.5364,13.5,13.68,47.84626,-54.09684
2020-07-20 19:29:01+00:00,226.9398,13.5,13.68,47.84626,-54.09684
2020-07-20 19:39:01+00:00,231.2081,13.5,13.68,47.84626,-54.09684
2020-07-20 19:49:01+00:00,235.7931,13.5,13.68,47.84626,-54.09684
2020-07-20 19:59:01+00:00,239.8681,13.52,13.68,47.84626,-54.09684
2020-07-20 20:09:01+00:00,245.5397,13.56,13.68,47.84626,-54.09684
2020-07-20 20:19:01+00:00,250.8731,13.5,13.44,47.84626,-54.09684
2020-07-20 20:29:01+00:00,256.7398,13.5,13.44,47.84626,-54.09684
2020-07-20 20:39:01+00:00,263.5848,13.48,13.44,47.84626,-54.09684
2020-07-20 20:49:01+00:00,271.2731,13.4,13.44,47.84626,-54.09684
2020-07-20 20:59:01+00:00,279.3864,13.4,13.44,47.84626,-54.09684
2020-07-20 21:09:01+00:00,288.5781,13.4,13.44,47.84626,-54.09684
2020-07-20 21:19:01+00:00,297.4113,13.4,13.29,47.84626,-54.09684
2020-07-20 21:29:01+00:00,304.9463,13.45,13.29,47.84626,-54.09684
2020-07-20 21:39:01+00:00,313.4579,13.49,13.29,47.84626,-54.09684
2020-07-20 21:49:01+00:00,324.233,13.48,13.29,47.84626,-54.09684
2020-07-20 21:59:01+00:00,330.6179,13.49,13.29,47.84626,-54.09684
2020-07-20 22:09:01+00:00,335.9413,13.5,13.29,47.84626,-54.09684
2020-07-20 22:19:01+00:00,343.543,13.5,12.97,47.84626,-54.09684
2020-07-20 22:29:01+00:00,350.9563,13.5,12.97,47.84626,-54.09684
2020-07-20 22:39:01+00:00,355.4846,13.5,12.97,47.84626,-54.09684
2020-07-20 22:49:01+00:00,360.3196,13.5,12.97,47.84626,-54.09684
2020-07-20 22:59:01+00:00,364.7229,13.5,12.97,47.84626,-54.09684
2020-07-20 23:09:01+00:00,367.0545,13.46,12.97,47.84626,-54.09684
2020-07-20 23:19:01+00:00,367.8795,13.4,12.73,47.84626,-54.09684
2020-07-20 23:29:01+00:00,369.233,13.4,12.73,47.84626,-54.09684
2020-07-20 23:39:01+00:00,370.7296,13.35,12.73,47.84626,-54.09684
2020-07-20 23:49:01+00:00,368.8347,13.3,12.73,47.84626,-54.09684
2020-07-20 23:59:01+00:00,370.6296,13.3,12.73,47.84626,-54.09684
